Location: Wald
(31.7579°N, 86.6655°W)
Time: 21:15:14
(UTC+00:00)

Gblst 52 Del rocket - Pass Details

Date: 14 July 2020
Orbit: 805 x 1366 km, 51.5° (Epoch: 12 August)

Event Time Altitude Azimuth Distance (km) Brightness Sun altitude
Rises 02:59:31 0° 314° (NW) 3,365 8.8 -22.4°
Reaches altitude 10° 03:01:53 10° 315° (NW) 2,468 7.8 -22.8°
Maximum altitude 03:07:39 90° 243° (WSW) 914 4.3 -23.6°
Enters shadow 03:09:13 53° 136° (SE) 1,126 4.4 -23.8°
